TimeCDT,TemperatureF,Dew PointF,Humidity,Sea Level PressureIn,VisibilityMPH,Wind Direction,Wind SpeedMPH,Gust SpeedMPH,PrecipitationIn,Events,Conditions,WindDirDegrees,DateUTC
12:54 AM,60.1,54.0,80,30.17,10.0,East,4.6,-,N/A,,Clear,90,2013-05-26 05:54:00
1:54 AM,57.9,53.1,84,30.17,10.0,East,4.6,-,N/A,,Partly Cloudy,90,2013-05-26 06:54:00
2:54 AM,60.1,52.0,75,30.15,10.0,ESE,4.6,-,N/A,,Overcast,110,2013-05-26 07:54:00
3:54 AM,59.0,52.0,78,30.14,10.0,East,4.6,-,N/A,,Scattered Clouds,100,2013-05-26 08:54:00
4:54 AM,59.0,52.0,78,30.14,10.0,East,4.6,-,N/A,,Overcast,90,2013-05-26 09:54:00
5:54 AM,57.0,51.1,81,30.14,10.0,East,3.5,-,N/A,,Partly Cloudy,90,2013-05-26 10:54:00
6:54 AM,60.1,53.1,78,30.13,10.0,ESE,5.8,-,N/A,,Scattered Clouds,120,2013-05-26 11:54:00
7:54 AM,63.0,55.0,75,30.15,10.0,Variable,3.5,-,N/A,,Mostly Cloudy,0,2013-05-26 12:54:00
8:54 AM,66.9,55.9,68,30.14,10.0,East,6.9,-,N/A,,Mostly Cloudy,100,2013-05-26 13:54:00
9:54 AM,70.0,57.0,63,30.13,10.0,SE,5.8,-,N/A,,Scattered Clouds,140,2013-05-26 14:54:00
10:54 AM,73.9,60.1,62,30.12,10.0,ESE,5.8,-,N/A,,Scattered Clouds,110,2013-05-26 15:54:00
11:54 AM,77.0,62.1,60,30.12,10.0,SE,4.6,-,N/A,,Clear,140,2013-05-26 16:54:00
12:54 PM,79.0,63.0,58,30.09,10.0,ESE,8.1,-,N/A,,Scattered Clouds,120,2013-05-26 17:54:00
1:54 PM,82.9,64.9,54,30.07,10.0,South,8.1,-,N/A,,Mostly Cloudy,170,2013-05-26 18:54:00
2:54 PM,82.0,64.9,56,30.06,10.0,East,6.9,-,N/A,,Overcast,80,2013-05-26 19:54:00
3:54 PM,82.9,66.0,56,30.02,10.0,ESE,6.9,-,N/A,,Mostly Cloudy,120,2013-05-26 20:54:00
4:06 PM,82.4,64.4,54,30.03,10.0,SE,8.1,-,N/A,Thunderstorm,Mostly Cloudy,140,2013-05-26 21:06:00
4:27 PM,82.4,64.4,54,30.03,10.0,SE,6.9,-,N/A,,Mostly Cloudy,140,2013-05-26 21:27:00
4:54 PM,79.0,66.0,64,30.00,10.0,ESE,4.6,-,0.00,Thunderstorm,Mostly Cloudy,120,2013-05-26 21:54:00
5:32 PM,78.8,66.2,65,30.01,10.0,ESE,6.9,-,N/A,,Scattered Clouds,120,2013-05-26 22:32:00
5:54 PM,79.0,66.0,64,29.99,10.0,SSE,4.6,-,N/A,,Scattered Clouds,150,2013-05-26 22:54:00
6:54 PM,80.1,68.0,67,29.97,10.0,SE,4.6,-,N/A,,Mostly Cloudy,140,2013-05-26 23:54:00
7:54 PM,79.0,64.9,62,29.97,10.0,SSE,4.6,-,N/A,,Mostly Cloudy,160,2013-05-27 00:54:00
8:54 PM,77.0,64.9,66,29.97,10.0,SSE,3.5,-,N/A,,Clear,150,2013-05-27 01:54:00
9:54 PM,75.9,64.0,67,29.98,10.0,South,5.8,-,N/A,,Mostly Cloudy,170,2013-05-27 02:54:00
10:54 PM,77.0,63.0,62,29.98,10.0,South,6.9,-,N/A,,Partly Cloudy,190,2013-05-27 03:54:00
11:54 PM,75.9,61.0,60,29.99,10.0,WSW,5.8,-,N/A,Thunderstorm,Mostly Cloudy,240,2013-05-27 04:54:00